Lid_Strength_Index
5 4 4 5 3 3 2 3 3 4 4 5 4 3 4 3 3 2 3 3 3 2 2 2 3 3 4 4 4 4 5 4 4 6 6 8 5 7 8 8 9 8 8
5 4 6 6 4 3 3 3 3 3 4 4 4 4 5 4 4 3 2 2 3 3 3 3 3 3 4 4 4 4 5 4 3 6 7 10 9 8 8 8 9 9 8
6 5 5 7 6 6 5 4 4 4 5 5 6 6 6 7 6 6 5 5 4 2 2 2 2 3 3 3 3 3 3 4 3 5 6 8 10 11 9 9 8 9 9
5 5 5 6 6 6 6 5 5 5 5 5 5 6 6 6 6 7 7 6 6 6 5 5 5 5 5 4 3 2 3 3 4 4 2 5 7 10 12 9 9 9 10
6 6 5 5 5 4 4 4 3 3 3 3 4 4 5 6 8 8 7 6 6 6 6 6 5 6 6 5 4 5 3 3 3 3 4 6 7 6 9 12 11 10 10
8 6 6 5 5 5 5 5 4 4 3 4 4 5 5 6 7 8 8 7 7 7 7 6 5 5 5 5 5 4 3 4 3 2 3 4 6 7 8 10 11 11 10
8 8 7 7 7 6 6 5 4 4 4 4 5 5 5 6 6 7 8 8 8 8 7 7 7 6 5 5 5 5 5 4 3 3 3 4 5 5 6 8 10 11 10
8 8 7 8 7 6 6 5 5 4 4 4 5 5 5 5 5 6 7 7 7 6 7 7 7 7 7 6 6 5 5 4 4 3 3 3 4 5 6 6 9 11 11
8 8 7 8 9 9 8 7 5 4 5 4 4 5 5 5 6 6 5 5 6 6 7 7 8 7 7 7 7 6 5 5 5 5 3 3 4 4 4 5 6 9 12
10 10 10 10 10 9 8 8 7 7 6 5 4 4 4 5 5 5 5 5 6 6 7 8 7 7 6 6 5 5 5 5 6 5 5 3 3 4 4 5 5 7 9
11 11 10 10 9 9 9 8 8 7 6 6 5 5 4 4 4 4 5 5 6 6 7 6 6 6 6 5 5 5 6 6 6 6 6 5 4 4 5 5 6 7 8
11 11 10 10 10 9 9 8 7 6 6 5 5 4 4 4 4 4 5 5 5 5 6 5 5 5 4 5 6 6 6 7 7 7 7 6 5 5 4 5 6 7 8
11 10 10 9 8 8 7 7 7 6 6 5 5 5 4 4 4 4 4 5 4 5 4 4 4 5 5 6 6 7 7 7 7 8 7 7 6 7 6 5 5 6 7
10 11 9 8 8 7 7 7 6 6 6 5 5 5 5 3 3 4 5 5 4 4 4 4 5 5 5 6 7 7 8 8 8 8 7 6 6 7 6 6 6 6 7
10 9 9 9 8 8 7 7 6 6 6 5 6 6 5 4 3 4 4 4 5 4 4 5 5 5 5 6 7 7 8 8 8 8 7 7 7 6 7 6 7 6 8
9 9 8 8 8 8 7 6 6 6 5 6 5 5 5 4 3 3 3 3 4 4 5 5 5 6 5 6 7 7 8 8 9 9 9 8 8 8 9 8 8 7 8
10 9 9 8 8 8 7 7 6 6 5 5 4 4 3 3 4 4 2 3 4 4 5 5 6 6 6 6 7 7 8 9 9 10 10 10 9 10 10 10 9 9 8
10 9 9 8 8 8 8 7 6 5 5 5 4 3 3 3 3 4 4 4 4 5 5 6 5 6 6 7 6 7 8 8 8 9 10 10 11 11 11 11 11 10 10
9 9 9 8 8 8 7 7 6 5 5 5 3 3 3 4 4 5 5 4 4 5 5 5 5 6 6 7 7 7 9 9 9 9 9 9 10 9 9 11 11 11 12
10 9 9 9 9 8 7 7 6 6 6 4 3 3 3 4 5 5 6 6 4 4 4 6 5 6 6 7 7 7 7 10 9 10 10 10 10 10 10 12 11 11 12
11 10 10 11 9 7 7 8 9 8 6 4 2 4 4 4 4 6 7 6 7 7 8 8 8 7 7 7 7 7 8 9 10 10 10 10 10 9 9 10 12 11 11
11 10 11 9 8 7 6 7 8 7 6 6 5 5 5 5 6 6 6 7 8 9 10 10 10 9 9 8 7 8 8 9 10 10 10 11 9 9 9 11 10 11 12
11 9 8 8 7 6 5 6 6 4 6 5 7 8 7 7 6 7 8 9 8 9 10 10 11 11 10 9 9 9 9 10 10 10 10 10 9 9 11 10 11 14 15
9 8 8 8 7 5 4 3 3 3 4 6 7 8 8 8 8 9 9 9 9 10 10 11 11 11 11 11 11 10 10 10 11 11 10 11 13 15 15 13 13 14 15
9 8 7 7 6 4 3 3 2 2 3 4 6 7 8 8 9 9 9 9 9 9 10 10 10 11 12 11 10 10 11 11 11 12 13 14 14 17 18 16 14 14 14
8 8 7 6 5 3 3 2 3 2 3 4 6 8 8 9 9 8 9 7 8 8 8 8 10 10 9 9 9 9 10 10 11 13 14 15 16 16 16 15 16 16 15